CDT,Max TemperatureF,Mean TemperatureF,Min TemperatureF,Max Dew PointF,MeanDew PointF,Min DewpointF,Max Humidity, Mean Humidity, Min Humidity, Max Sea Level PressureIn, Mean Sea Level PressureIn, Min Sea Level PressureIn, Max VisibilityMiles, Mean VisibilityMiles, Min VisibilityMiles, Max Wind SpeedMPH, Mean Wind SpeedMPH, Max Gust SpeedMPH,PrecipitationIn, CloudCover, Events, WindDirDegrees
2011-10-1,64,46,29,36,31,26,95,62,24,30.37,30.29,30.21,10,10,10,9,3,,0.00,0,,155
2011-10-2,79,62,44,43,35,32,67,44,19,30.23,30.17,30.11,10,10,10,12,5,16,0.00,0,,195
2011-10-3,82,62,41,44,38,33,84,48,17,30.21,30.17,30.13,10,10,10,12,3,18,0.00,0,,176
2011-10-4,84,65,46,43,36,29,79,41,14,30.19,30.13,30.05,10,10,10,15,5,22,0.00,0,,171
2011-10-5,87,75,63,43,41,36,45,31,18,30.11,30.06,30.02,10,10,10,14,8,20,0.00,0,,171
2011-10-6,82,70,58,44,42,36,57,39,19,30.11,30.06,30.00,10,10,10,20,9,29,0.00,0,,166
2011-10-7,84,74,65,56,52,48,59,45,35,30.01,29.95,29.87,10,10,7,25,15,37,0.00,2,,170
2011-10-8,85,76,66,58,52,49,54,45,34,30.10,30.03,29.96,10,10,10,17,11,25,0.00,4,,187
2011-10-9,82,71,60,53,49,44,67,46,27,30.22,30.16,30.12,10,10,10,15,6,18,0.00,2,,176
2011-10-10,75,66,57,58,48,42,91,56,30,30.12,30.02,29.91,10,10,5,18,9,25,0.02,1,Rain,157
2011-10-11,75,64,53,55,52,48,91,67,39,29.93,29.87,29.80,10,9,5,12,6,20,0.01,1,Rain,181
2011-10-12,68,63,58,58,55,50,92,79,58,29.79,29.73,29.67,10,9,3,12,6,18,0.23,5,Rain-Thunderstorm,163
2011-10-13,59,54,49,55,49,40,94,80,59,29.66,29.63,29.61,10,7,0,17,6,25,0.00,5,Fog-Rain,286
2011-10-14,57,52,47,45,40,35,87,66,44,29.76,29.68,29.63,10,10,10,28,12,37,0.00,5,,292
2011-10-15,60,50,41,40,36,30,83,60,35,29.89,29.84,29.80,10,10,10,20,11,29,0.00,2,Rain,272
2011-10-16,58,50,42,42,35,26,84,57,30,29.88,29.84,29.81,10,10,10,22,10,33,0.00,2,,276
2011-10-17,58,48,38,32,29,23,76,50,27,29.88,29.85,29.82,10,10,10,23,13,30,0.00,0,,280
2011-10-18,46,40,35,35,32,29,78,66,59,30.02,29.94,29.85,10,10,10,18,9,22,0.00,7,,317
2011-10-19,47,44,40,34,33,30,75,68,54,30.08,30.04,30.01,10,10,10,16,12,21,0.00,8,Rain,5
2011-10-20,54,44,32,34,30,24,90,64,33,29.99,29.94,29.89,10,10,10,18,10,28,0.00,1,,341
2011-10-21,61,42,24,35,29,22,91,62,30,30.05,29.99,29.96,10,10,7,10,4,,0.00,0,,215
2011-10-22,59,48,36,39,34,31,87,61,36,30.12,30.06,29.98,10,10,7,7,3,,0.00,0,,320
2011-10-23,61,50,39,46,40,31,89,68,51,29.95,29.85,29.77,10,10,5,15,6,17,0.02,4,Rain,233
2011-10-24,64,48,32,42,38,32,96,73,42,30.03,29.98,29.93,10,9,5,8,4,,0.00,1,,206
2011-10-25,55,47,39,42,40,36,88,69,56,29.95,29.85,29.79,10,10,5,22,11,26,0.00,4,,57
2011-10-26,50,44,38,37,36,33,88,75,55,30.09,30.04,30.00,10,10,10,10,6,,0.00,6,,344
2011-10-27,52,40,29,36,31,24,93,70,39,30.08,30.04,30.01,10,9,5,13,4,16,0.00,4,Rain,237
2011-10-28,55,41,27,30,25,20,86,53,27,30.08,30.02,29.99,10,10,10,17,7,23,0.00,3,Rain,249
2011-10-29,54,38,21,30,21,17,87,54,24,30.06,30.00,29.94,10,10,10,10,4,,0.00,1,,181
2011-10-30,49,46,42,37,29,19,78,54,33,29.91,29.82,29.77,10,10,10,16,10,25,0.00,7,,210
2011-10-31,52,41,30,36,33,29,94,72,46,30.02,29.97,29.93,10,9,2,13,6,,0.00,3,,221